Terminal Aerodrome Forecast
Issued by NWS Indianapolis, IN

Home | Current Version | Previous Version | Text Only | Print | Product List | Glossary On
Versions: 1 2 3 4 5 6 7 8 9 10 11 12 13 14 15 16 17 18 19 20 21 22 23 24 25 26 27 28 29 30 31 32 33 34 35 36 37 38 39 40 41 42 43 44 45 46 47 48 49 50
000
FTUS43 KIND 171417 AAB
TAFIND
TAF AMD
KIND 171417Z 1714/1818 VRB05KT 4SM BR OVC006
      TEMPO 1714/1716 1 1/2SM BR OVC004
     FM171600 VRB04KT 6SM -SHRA BR VCTS OVC030CB
     FM180800 00000KT P6SM OVC030
     FM181200 00000KT P6SM BKN007
     FM181700 VRB04KT P6SM BKN030=

USA.gov is the U.S. government's official web portal to all federal, state and local government web resources and services.